Regional Weather Roundup
Issued by NWS Albany, NY

Home | Current Version | Previous Version | Graphics & Text | Print | Product List | Glossary Off
Versions: 1 2 3 4 5 6 7 8 9 10 11 12 13 14 15 16 17 18 19 20 21 22 23 24 25 26 27 28 29 30 31 32 33 34 35 36 37 38 39 40 41 42 43 44 45 46 47 48 49 50

000
ASUS41 KALY 231610
RWRALY

NEW YORK STATE HOURLY WEATHER ROUNDUP
NATIONAL WEATHER SERVICE ALBANY NY
1100 AM EST MON JAN 23 2017

NOTE: "FAIR" INDICATES FEW OR NO CLOUDS BELOW 12,000 FEET WITH NO
SIGNIFICANT WEATHER AND/OR NO OBSTRUCTIONS TO VISIBILITY.

NYZ032-033-038>043-046>054-057>066-NYZ062>081-082-084-231700-
EAST


CITY           SKY/WX    TMP DP  RH WIND       PRES   REMARKS
ALBANY         CLOUDY    38  25  59 NE14      29.96F WCI  30
GLENS FALLS    CLOUDY    36  24  62 NE13      30.00R WCI  27
POUGHKEEPSIE   CLOUDY    38  27  64 NE8G21    29.91R WCI  32
NEWBURGH       CLOUDY    37  30  75 E21G29    29.89R WCI  27
MONTGOMERY     CLOUDY    39  29  67 NE15G25   29.88R WCI  31
WHITE PLAINS   CLOUDY    40  28  62 E18G33    29.85R WCI  31
ISLIP          LGT RAIN  40  32  73 NE24G35   29.85R WCI  29
NEW YORK CITY  CLOUDY    42  30  62 E24G38    29.86R
CENTRAL PARK   CLOUDY    40  30  67 NE21G32   29.86R WCI  30
$$

NYZ005>009-017-018-044>046-055-056-231700-
CENTRAL


CITY           SKY/WX    TMP DP  RH WIND       PRES   REMARKS
FULTON         CLOUDY    40  31  70 E10G18    29.86R WCI  33
SYRACUSE       PTSUNNY   39  31  72 E13G20    29.85R WCI  31
ROME           CLOUDY    38  30  73 E22G29    29.92R WCI  27
ELMIRA         CLOUDY    42  33  70 E12       29.77S
BINGHAMTON     CLOUDY    37  32  82 E8        29.76F WCI  31
MONTICELLO     CLOUDY    34  28  80 E21G39    29.82F WCI  22
$$

NYZ026>034-041>043-087-231700-
NORTH


CITY           SKY/WX    TMP DP  RH WIND       PRES   REMARKS
WATERTOWN      CLOUDY    36  34  92 NE13      29.89S WCI  27
FORT DRUM      NOT AVBL
OGDENSBURG     CLOUDY    33  30  90 NE13G18   29.94F WCI  24
MASSENA        CLOUDY    32  26  78 NE17      29.99S WCI  21
SARANAC LAKE   CLOUDY    34  28  79 E6        29.88S WCI  29
PLATTSBURGH    CLOUDY    37  29  72 SE8       30.01S WCI  31
$$

NYZ001>004-010>016-019>021-085-231700-
WEST


CITY           SKY/WX    TMP DP  RH WIND       PRES   REMARKS
NIAGARA FALLS  CLOUDY    44  40  85 E13       29.75S
BUFFALO        PTSUNNY   43  40  89 NE14      29.74S
DUNKIRK        CLOUDY    43  41  93 N9        29.70S
JAMESTOWN      CLOUDY    46  37  71 E12       29.66S
WELLSVILLE     CLOUDY    39  35  86 SE15G23   29.71S WCI  31
ROCHESTER      CLOUDY    43  37  79 E10       29.81R
PENN YAN       CLOUDY    42  35  76 E6        29.79F
$$

             KEY
       WCI = WIND CHILL INDEX
       VSB = VISIBILITY
       HX  = HEAT INDEX
$$



USA.gov is the U.S. government's official web portal to all federal, state and local government web resources and services.